FENGYUN 1C DEB, 32320

Orbit data source: Space-Track

FENGYUN 1C DEB, 32320 is space debris in SSO originally from a launch on Mon, 10 May 1999 UTC launched from the Taiyaun Space Center, China (TSC). Fengyun 1C debris stems from the Chinese weather satellite Fengyun-1C, which was intentionally destroyed by a Chinese anti-satellite missile in 2007. This event dramatically increased the amount of space debris, with thousands of trackable fragments posing hazards to satellites and human spaceflight. The Fengyun 1C debris cloud has become a focal point in discussions about space sustainability and the need for international regulations to prevent the creation of new debris.

Loading next visibility...
Identifier
32320, 1999-025CXM
Orbit
SSO
Country
Flag of CNCN / PRC
Related business
Manufacturer
Unknown
Mission
Spacecraft
Bus & Motor
Unknown
Mass
Unknown
Launch date (UTC)
1999-05-10 (27 years ago)
Launch vehicle
Unknown
Launch site
Taiyaun Space Center, China (TSC)
Object type
Payload
Rocket body
Debris
Shape & HBR
Unknown shape, 0.1 m
Radar Cross Section
Small (<0.1 m²)

Expand to show TLE details & history
Last TLE update: 18 hours ago

TLE from 18 hours ago
0 FENGYUN 1C DEB
1 32320U 99025CXM 26208.21018199  .00002163  00000-0  73294-3 0  9994
2 32320 100.3546 116.0857 0055006 131.8340 228.7555 14.37247869654252
Epoch: 2026-07-27T05:02Z
TLE epoch observation values (Epoch: 2026-07-27T05:02:39.723Z)
Latitude
-0.00012°
Longitude
95.52318°
Altitude
796.526 km
Speed
7.442 km/s
True Right ascension
07h 44m 20s
True Declination
0° 00' 00"
Sunlit
Object was in daylight at epoch
Visualization orbit readout
Latitude
Unknown
Longitude
Unknown
Altitude
Unknown
Speed
Unknown
Apparent Right ascension
Unknown
Apparent Declination
Unknown
Sunlit
N/A
Visualization observer readout
Local Sidereal Time
12:35:48
Azimuth
Unknown
Elevation
Unknown
Doppler factor
Unknown
Orbital elements
Apogee altitude
804.119 km
Perigee altitude
725.537 km
Semi-major axis
7,142.965 km
Eccentricity
0.0055
Inclination
100.3546°
RAAN
116.0857°
Arg. of periapsis
131.834°
True anomaly
228.2837°
Mean anomaly
228.7555°
Eccentric anomaly
228.51939°
Mean motion
3.59522 °/min
Orbital period
100.13 mins
BSTAR
0.00073294
Loading maneuver chart data...
Computing Atmospheric mass density...
Loading historical data...
Loading historical data...
Loading historical data...
Loading historical data...
Loading historical data...
Loading historical data...
Loading historical data...

Documentation

Showing up to 5 results
|